CFE35L EGLC-LESO

Flight info

Callsign CFE35L
Flight time N/A
Altitude 25000
Route SOQQA M87 EKNIV M91 LYD UM189 WAFFU/N0467F320 DCT SITET/N0463F330 UN859 SOPIL DCT BALAN DCT LMG DCT UVELI DCT OSMOB DCT VAVIX DCT BTZ/N0389F190 R10 URUNA P181 SSN
Aircraft E190/M-SDE3GILORVW/S

Departure

Time N/A
Airport London City Airport (EGLC)

Arrival

Time 2026-04-12 10:52
Airport San Sebastián Airport (LESO)
Time Latitude Longitude Altitude Speed Heading
2026-04-12 10:04 46.27362 1.03148 25144 ft 368 kts 184°
2026-04-12 10:05 46.24806 1.03108 25145 ft 368 kts 184°
2026-04-12 10:05 46.22288 1.03084 25135 ft 367 kts 184°
2026-04-12 10:05 46.19730 1.03048 25150 ft 367 kts 184°
2026-04-12 10:05 46.17178 1.03008 25594 ft 362 kts 184°
2026-04-12 10:06 46.14655 1.02978 26194 ft 362 kts 184°
2026-04-12 10:06 46.12123 1.02950 26641 ft 365 kts 184°
2026-04-12 10:06 46.09569 1.02914 27055 ft 369 kts 184°
2026-04-12 10:06 46.06988 1.02879 27428 ft 373 kts 184°
2026-04-12 10:07 46.04378 1.02843 27774 ft 377 kts 184°
2026-04-12 10:07 46.01742 1.02810 28090 ft 381 kts 184°
2026-04-12 10:07 45.99079 1.02776 28415 ft 385 kts 184°
2026-04-12 10:07 45.96396 1.02743 28752 ft 387 kts 183°
2026-04-12 10:08 45.93688 1.02705 29076 ft 390 kts 183°
2026-04-12 10:08 45.90974 1.02672 29461 ft 391 kts 183°
2026-04-12 10:08 45.88247 1.02637 29828 ft 392 kts 183°
2026-04-12 10:08 45.85513 1.02595 30174 ft 393 kts 185°
2026-04-12 10:09 45.82841 1.01930 30529 ft 389 kts 198°
2026-04-12 10:09 45.80370 1.00372 30921 ft 389 kts 209°
2026-04-12 10:09 45.78171 0.98110 31319 ft 389 kts 215°
2026-04-12 10:09 45.76022 0.95765 31644 ft 389 kts 214°
2026-04-12 10:10 45.73882 0.93389 32002 ft 389 kts 216°
2026-04-12 10:10 45.71790 0.90960 32135 ft 385 kts 217°
2026-04-12 10:10 45.69725 0.88501 32156 ft 387 kts 217°
2026-04-12 10:11 45.65572 0.83557 32156 ft 389 kts 217°
2026-04-12 10:11 45.61413 0.78609 32169 ft 390 kts 217°
2026-04-12 10:12 45.57268 0.73680 32132 ft 386 kts 217°
2026-04-12 10:12 45.53155 0.68814 32155 ft 387 kts 217°
2026-04-12 10:13 45.49001 0.63905 32151 ft 389 kts 217°
2026-04-12 10:13 45.45539 0.59815 32155 ft 389 kts 217°
2026-04-12 10:14 45.41366 0.54901 32151 ft 390 kts 217°
2026-04-12 10:14 45.37164 0.49955 32152 ft 389 kts 216°
2026-04-12 10:15 45.33007 0.45082 32151 ft 390 kts 216°
2026-04-12 10:15 45.28815 0.40167 32154 ft 391 kts 216°
2026-04-12 10:16 45.24635 0.35276 32161 ft 387 kts 216°
2026-04-12 10:16 45.20472 0.30417 32158 ft 388 kts 216°
2026-04-12 10:17 45.16299 0.25560 32159 ft 388 kts 216°
2026-04-12 10:17 45.12113 0.20694 32159 ft 390 kts 216°
2026-04-12 10:18 45.07920 0.15829 32157 ft 390 kts 216°
2026-04-12 10:18 45.03723 0.10967 32161 ft 390 kts 216°
2026-04-12 10:19 44.99531 0.06098 32145 ft 390 kts 216°
2026-04-12 10:19 44.95338 0.01223 32164 ft 391 kts 216°
2026-04-12 10:20 44.91125 -0.03632 32027 ft 390 kts 216°
2026-04-12 10:20 44.88981 -0.05990 31763 ft 391 kts 214°
2026-04-12 10:20 44.86760 -0.08278 31567 ft 400 kts 212°
2026-04-12 10:20 44.84430 -0.10435 31841 ft 399 kts 209°
2026-04-12 10:21 44.82048 -0.12331 32536 ft 385 kts 206°
2026-04-12 10:21 44.79707 -0.13904 32793 ft 363 kts 203°
2026-04-12 10:21 44.77377 -0.15208 31774 ft 364 kts 199°
2026-04-12 10:21 44.74907 -0.16370 30608 ft 384 kts 198°
2026-04-12 10:22 44.72416 -0.17825 30450 ft 389 kts 207°
2026-04-12 10:22 44.70239 -0.20042 30834 ft 387 kts 221°
2026-04-12 10:22 44.68537 -0.23049 30926 ft 400 kts 230°
2026-04-12 10:23 44.65345 -0.29364 31039 ft 382 kts 227°
2026-04-12 10:23 44.63667 -0.32167 30827 ft 365 kts 223°
2026-04-12 10:23 44.62046 -0.34841 30795 ft 358 kts 226°
2026-04-12 10:24 44.58460 -0.39862 30853 ft 372 kts 215°
2026-04-12 10:24 44.54175 -0.44205 30904 ft 388 kts 212°
2026-04-12 10:25 44.49650 -0.48567 31244 ft 397 kts 212°
2026-04-12 10:25 44.47385 -0.50747 31677 ft 394 kts 212°
2026-04-12 10:25 44.45137 -0.52911 32111 ft 390 kts 212°
2026-04-12 10:26 44.40694 -0.57174 32127 ft 392 kts 212°
2026-04-12 10:26 44.36170 -0.61502 32117 ft 395 kts 212°
2026-04-12 10:27 44.31637 -0.65839 32116 ft 395 kts 212°
2026-04-12 10:27 44.27106 -0.70169 32114 ft 395 kts 212°
2026-04-12 10:28 44.22668 -0.74686 32112 ft 395 kts 214°
2026-04-12 10:28 44.18241 -0.79223 32122 ft 393 kts 213°
2026-04-12 10:29 44.13813 -0.83716 32118 ft 395 kts 213°
2026-04-12 10:29 44.11606 -0.85951 32100 ft 384 kts 213°
2026-04-12 10:29 44.09506 -0.88082 32049 ft 363 kts 213°
2026-04-12 10:29 44.07524 -0.90091 32046 ft 344 kts 213°
2026-04-12 10:30 44.05627 -0.92011 32141 ft 336 kts 213°
2026-04-12 10:30 44.03710 -0.93939 31767 ft 346 kts 213°
2026-04-12 10:30 44.01710 -0.95948 30483 ft 361 kts 213°
2026-04-12 10:30 43.99648 -0.98023 29175 ft 371 kts 213°
2026-04-12 10:31 43.97613 -1.00081 28876 ft 354 kts 213°
2026-04-12 10:31 43.95637 -1.02071 28389 ft 346 kts 213°
2026-04-12 10:31 43.93685 -1.04031 27951 ft 350 kts 213°
2026-04-12 10:31 43.91692 -1.06033 27488 ft 355 kts 213°
2026-04-12 10:32 43.89698 -1.08043 27015 ft 354 kts 213°
2026-04-12 10:32 43.87704 -1.10045 26545 ft 353 kts 213°
2026-04-12 10:32 43.85721 -1.12029 26077 ft 351 kts 213°
2026-04-12 10:32 43.83750 -1.13998 25623 ft 349 kts 213°
2026-04-12 10:33 43.81788 -1.15963 25125 ft 347 kts 213°
2026-04-12 10:33 43.79844 -1.17904 24710 ft 344 kts 213°
2026-04-12 10:33 43.77903 -1.19842 24226 ft 343 kts 213°
2026-04-12 10:33 43.75974 -1.21772 23784 ft 342 kts 213°
2026-04-12 10:34 43.74057 -1.23690 23296 ft 338 kts 214°
2026-04-12 10:34 43.72154 -1.25587 22879 ft 337 kts 214°
2026-04-12 10:34 43.70246 -1.27480 22425 ft 337 kts 214°
2026-04-12 10:34 43.68348 -1.29369 21972 ft 336 kts 214°
2026-04-12 10:35 43.66453 -1.31243 21532 ft 334 kts 214°
2026-04-12 10:35 43.64565 -1.33117 21089 ft 334 kts 215°
2026-04-12 10:35 43.62686 -1.34995 20644 ft 333 kts 216°
2026-04-12 10:35 43.60836 -1.36838 20210 ft 333 kts 216°
2026-04-12 10:36 43.58958 -1.38703 19761 ft 333 kts 216°
2026-04-12 10:36 43.57079 -1.40556 19323 ft 331 kts 216°
2026-04-12 10:36 43.55210 -1.42400 18892 ft 330 kts 217°
2026-04-12 10:36 43.53350 -1.44250 18451 ft 329 kts 217°
2026-04-12 10:37 43.51499 -1.46091 18004 ft 327 kts 217°
2026-04-12 10:37 43.49658 -1.47914 17588 ft 326 kts 217°
2026-04-12 10:37 43.47818 -1.49735 17148 ft 325 kts 218°
2026-04-12 10:37 43.46217 -1.51894 16720 ft 323 kts 233°
2026-04-12 10:38 43.44937 -1.54440 16280 ft 324 kts 235°
2026-04-12 10:38 43.43690 -1.57017 15848 ft 323 kts 236°
2026-04-12 10:38 43.42458 -1.59582 15419 ft 321 kts 236°
2026-04-12 10:38 43.41229 -1.62144 15013 ft 320 kts 236°
2026-04-12 10:39 43.40017 -1.64665 14571 ft 313 kts 236°
2026-04-12 10:39 43.38829 -1.67129 14172 ft 305 kts 236°
2026-04-12 10:39 43.37667 -1.69537 13745 ft 299 kts 236°
2026-04-12 10:39 43.36530 -1.71887 13379 ft 291 kts 236°
2026-04-12 10:40 43.35417 -1.74183 12992 ft 286 kts 236°
2026-04-12 10:40 43.34326 -1.76431 12678 ft 281 kts 236°
2026-04-12 10:40 43.33241 -1.78669 12251 ft 283 kts 236°
2026-04-12 10:40 43.32152 -1.80919 11865 ft 283 kts 238°
2026-04-12 10:41 43.31432 -1.83403 11569 ft 281 kts 260°
2026-04-12 10:41 43.31530 -1.86078 11178 ft 286 kts 285°
2026-04-12 10:41 43.32545 -1.88421 10773 ft 290 kts 314°
2026-04-12 10:41 43.34224 -1.89938 10409 ft 290 kts 331°
2026-04-12 10:42 43.36050 -1.91120 9980 ft 290 kts 333°
2026-04-12 10:42 43.37869 -1.92297 9575 ft 286 kts 332°
2026-04-12 10:42 43.39621 -1.93535 9204 ft 281 kts 330°
2026-04-12 10:42 43.41318 -1.94812 8834 ft 276 kts 329°
2026-04-12 10:43 43.44351 -1.97892 8115 ft 271 kts 326°
2026-04-12 10:43 43.46121 -1.98710 7770 ft 272 kts 359°
2026-04-12 10:43 43.47917 -1.98047 7596 ft 272 kts 31°
2026-04-12 10:44 43.49204 -1.96147 7236 ft 277 kts 63°
2026-04-12 10:44 43.49647 -1.93580 6853 ft 276 kts 84°
2026-04-12 10:44 43.49745 -1.90949 6478 ft 273 kts 84°
2026-04-12 10:44 43.50078 -1.88415 6147 ft 266 kts 72°
2026-04-12 10:45 43.50704 -1.86034 5790 ft 263 kts 65°
2026-04-12 10:45 43.51485 -1.83773 5456 ft 260 kts 61°
2026-04-12 10:45 43.52315 -1.81566 5093 ft 259 kts 60°
2026-04-12 10:45 43.53146 -1.79378 4750 ft 257 kts 60°
2026-04-12 10:46 43.53975 -1.77214 4418 ft 254 kts 60°
2026-04-12 10:46 43.54746 -1.75046 4082 ft 253 kts 70°
2026-04-12 10:46 43.54809 -1.72676 3759 ft 256 kts 104°
2026-04-12 10:46 43.53882 -1.70630 3506 ft 255 kts 134°
2026-04-12 10:47 43.52522 -1.69064 3149 ft 254 kts 139°
2026-04-12 10:47 43.51222 -1.67440 2833 ft 251 kts 133°
2026-04-12 10:47 43.50063 -1.65699 2642 ft 242 kts 133°
2026-04-12 10:47 43.48647 -1.64548 2349 ft 235 kts 168°
2026-04-12 10:48 43.47138 -1.64847 2273 ft 214 kts 209°
2026-04-12 10:48 43.46158 -1.66227 2206 ft 194 kts 237°
2026-04-12 10:48 43.45423 -1.67700 2159 ft 182 kts 234°
2026-04-12 10:48 43.44596 -1.69001 2152 ft 182 kts 226°
2026-04-12 10:49 43.43681 -1.70163 2122 ft 174 kts 221°
2026-04-12 10:49 43.42811 -1.71162 1906 ft 155 kts 219°
2026-04-12 10:49 43.42000 -1.72067 1570 ft 146 kts 219°
2026-04-12 10:49 43.41233 -1.72909 1251 ft 134 kts 219°
2026-04-12 10:50 43.40520 -1.73688 1050 ft 130 kts 219°
2026-04-12 10:50 43.39816 -1.74466 876 ft 130 kts 219°
2026-04-12 10:50 43.39114 -1.75243 748 ft 130 kts 219°
2026-04-12 10:50 43.38403 -1.76024 585 ft 132 kts 218°
2026-04-12 10:51 43.37691 -1.76810 411 ft 129 kts 218°
2026-04-12 10:51 43.36994 -1.77579 278 ft 129 kts 217°
2026-04-12 10:51 43.36289 -1.78362 92 ft 130 kts 216°
2026-04-12 10:51 43.35624 -1.79090 17 ft 108 kts 219°
2026-04-12 10:52 43.35193 -1.79562 20 ft 40 kts 218°
2026-04-12 10:52 43.35088 -1.79718 18 ft 11 kts 249°
2026-04-12 10:52 43.35071 -1.79711 18 ft 4 kts 89°
2026-04-12 10:52 43.35152 -1.79608 18 ft 34 kts 38°
2026-04-12 10:53 43.35344 -1.79395 19 ft 36 kts 37°
2026-04-12 10:53 43.35498 -1.79239 17 ft 15 kts
2026-04-12 10:53 43.35549 -1.79293 16 ft 4 kts 310°
2026-04-12 10:53 43.35562 -1.79315 16 ft 0 kts 309°
2026-04-12 10:54 43.35563 -1.79316 16 ft 0 kts 309°
2026-04-12 10:54 43.35562 -1.79322 16 ft 2 kts 274°
2026-04-12 10:54 43.35556 -1.79326 16 ft 1 kts 221°
2026-04-12 10:54 43.35534 -1.79343 18 ft 1 kts 217°
2026-04-12 10:55 43.35526 -1.79351 16 ft 0 kts 216°